Weather Service Report


593 
ASUS41 KCLE 010110
RWRCLE
OHIO REGIONAL WEATHER ROUNDUP
NATIONAL WEATHER SERVICE CLEVELAND, OH
900 PM EDT THU JUN 30 2016

NOTE: "FAIR" INDICATES FEW OR NO CLOUDS BELOW 12,000 FEET WITH NO
SIGNIFICANT WEATHER AND/OR OBSTRUCTIONS TO VISIBILITY.

OHZ001>008-015>018-024>027-034-035-043-044-010200-
   NORTHWEST OHIO
  
CITY           SKY/WX    TMP DP  RH WIND       PRES   REMARKS
DEFIANCE       MOCLDY    74  52  46 S3        29.96S                  
FINDLAY        PTCLDY    75  46  35 CALM      29.96S                  
TOLEDO EXPRESS PTCLDY    69  55  60 S5        29.95S                  
TOLEDO EXEC    MOCLDY    76  48  37 W3        29.96S                  
LIMA           CLOUDY    74  51  44 SW3       29.97S                  
$$

OHZ009>014-019>023-028>033-038-089-010200-
   NORTHEAST OHIO
  
CITY           SKY/WX    TMP DP  RH WIND       PRES   REMARKS
CLE-HOPKINS    MOCLDY    74  46  36 N6        29.99F                  
CLE-LAKEFRONT  CLEAR     74  52  46 NE9       29.96S                  
CUY CO. ARPT   MOCLDY    72  50  46 E8        29.99F                  
LORAIN-ELYRIA  CLEAR     73  49  42 E6        29.97F                  
ASHTABULA      CLEAR     68  46  45 E3        30.00F                  
AKRON-CANTON   CLOUDY    72  48  42 S7        29.99F                  
WOOSTER        CLOUDY    68  53  58 SW5       29.99F                  
MANSFIELD      PTCLDY    70  50  49 S6        30.00S                  
YOUNGSTOWN     MOCLDY    68  52  56 SE3       30.00S                  
$$

OHZ042-051>053-060>062-070>072-077>081-010200-
  SOUTHWEST OHIO
  
CITY           SKY/WX    TMP DP  RH WIND       PRES   REMARKS
CINC-COVINGTON PTCLDY    72  55  55 S3        29.98F                  
CINC-LUNKEN    CLEAR     71  60  68 S5        29.98S                  
HAMILTON       CLEAR     69  59  70 CALM      29.98F                  
DAYTON         PTCLDY    73  52  47 SW8       29.99S                  
WRIGHT-PAT AFB PTCLDY    74  54  49 S7        29.97F                  
DAYTON GENERAL PTCLDY    71  55  56 CALM      29.98S                  
WILMINGTON     CLOUDY    73  56  54 S5        29.99F                  
$$

OHZ036-037-039>041-045>050-054>059-063>069-073>076-082>088-010200-
  CENTRAL AND SOUTHEAST OHIO
  
CITY           SKY/WX    TMP DP  RH WIND       PRES   REMARKS
COLUMBUS       CLOUDY    75  50  41 S5        29.98S                  
OSU AIRPORT    CLOUDY    74  51  44 S7        29.98S                  
BOLTON FIELD   CLOUDY    71  55  56 S5        29.99S                  
RICKENBACK AFB CLOUDY    71  56  58 S6        29.98S                  
NEWARK         PTCLDY    71  58  63 CALM      29.98F                  
MARION         PTCLDY    72  52  49 S6        29.98S                  
LANCASTER      CLOUDY    72  58  61 S3        30.00S                  
ZANESVILLE     PTCLDY    74  59  59 CALM      29.99F                  
NEW PHILLY     PTCLDY    74  52  46 CALM      29.99F                  
$$
  


656 
ASUS41 KCLE 010110
RWRCLE
OHIO REGIONAL WEATHER ROUNDUP
NATIONAL WEATHER SERVICE WILMINGTON, OH
900 PM EDT THU JUN 30 2016

NOTE: "FAIR" INDICATES FEW OR NO CLOUDS BELOW 12,000 FEET WITH NO
SIGNIFICANT WEATHER AND/OR OBSTRUCTIONS TO VISIBILITY.

OHZ001>008-015>018-024>027-034-035-043-044-010200-
   NORTHWEST OHIO
  
CITY           SKY/WX    TMP DP  RH WIND       PRES   REMARKS
DEFIANCE       FAIR      74  52  46 S3        29.96S                  
FINDLAY        FAIR      75  46  35 CALM      29.96S                  
TOLEDO EXPRESS FAIR      69  55  60 S5        29.95S                  
TOLEDO EXEC    FAIR      76  48  37 W3        29.96S                  
LIMA           FAIR      74  51  44 SW3       29.97S                  
$$
 
OHZ009>014-019>023-028>033-038-089-010200-
   NORTHEAST OHIO
  
CITY           SKY/WX    TMP DP  RH WIND       PRES   REMARKS
CLE-HOPKINS    MOCLDY    74  46  36 N6        29.99F                  
CLE-LAKEFRONT  FAIR      74  52  46 NE9       29.96S                  
CUY CO. ARPT   MOCLDY    72  50  46 E8        29.99F                  
LORAIN-ELYRIA  FAIR      73  49  42 E6        29.97F                  
ASHTABULA      FAIR      68  46  45 E3        30.00F                  
AKRON-CANTON   MOCLDY    72  48  42 S7        29.99F                  
WOOSTER        FAIR      68  53  58 SW5       29.99F                  
MANSFIELD      FAIR      70  50  49 S6        30.00S                  
YOUNGSTOWN     MOCLDY    68  52  56 SE3       30.00S                  
$$
 
OHZ042-051>053-060>062-070>072-077>081-010200-
  SOUTHWEST OHIO
  
CITY           SKY/WX    TMP DP  RH WIND       PRES   REMARKS
CINC-COVINGTON FAIR      72  55  55 S3        29.98F                  
CINC-LUNKEN    FAIR      71  60  68 S5        29.98S                  
HAMILTON       FAIR      69  59  70 CALM      29.98F                  
DAYTON         FAIR      73  52  47 SW8       29.99S                  
WRIGHT-PAT AFB FAIR      74  54  49 S7        29.97F                  
DAYTON GENERAL FAIR      71  55  56 CALM      29.98S                  
WILMINGTON     FAIR      73  56  54 S5        29.99F                  
$$

OHZ036-037-039>041-045>050-054>059-063>069-073>076-082>088-010200-
  CENTRAL AND SOUTHEAST OHIO
  
CITY           SKY/WX    TMP DP  RH WIND       PRES   REMARKS
COLUMBUS       MOCLDY    75  50  41 S5        29.98S                  
OSU AIRPORT    FAIR      74  51  44 S7        29.98S                  
BOLTON FIELD   FAIR      71  55  56 S5        29.99S                  
RICKENBACK AFB FAIR      71  56  58 S6        29.98S                  
NEWARK         FAIR      71  58  63 CALM      29.98F                  
MARION         FAIR      72  52  49 S6        29.98S                  
LANCASTER      FAIR      72  58  61 S3        30.00S                  
ZANESVILLE     FAIR      74  59  59 CALM      29.99F                  
NEW PHILLY     FAIR      74  52  46 CALM      29.99F                  
$$
  

Return to Home page


Western Regional Climate Center, wrcc@dri.edu